[[{"header":{"parameterUnit":"m.s-1","parameterCategory":1,"la1":30.2992,"la2":30.254,"lo1":-89.0895,"lo2":-89.0443,"dy":0.0025,"dx":0.0025,"nx":19,"ny":19,"refTime":"2026-04-22T21:00:00:Z","depth":0,"parameterNumber":2,"parameterNumberName":"U-component_of_WINDS"},"data":[0,0,0,-1.9912,-1.9915,-2.0023,-2.0023,-2.0168,-2.017,0,0,0,0,0,0,0,0,0,0,0,-1.9881,-1.9882,-1.9912,-1.9915,-2.0023,-2.0023,-2.0168,-2.017,0,0,0,0,0,0,0,0,0,0,0,-1.988,-1.9882,-1.9883,-1.9915,-2.0023,-2.0023,-2.0168,-2.0085,0,0,0,0,0,0,0,0,0,0,-1.9979,-1.9949,-1.9881,-1.9883,-1.9916,-2.0023,-2.0024,-2.0081,-2.009,-2.0121,0,-2.0146,0,-2.016,-2.0179,-2.018,0,0,0,-1.9915,-1.9942,-1.997,-1.9883,-1.9917,-2.0023,-1.9974,-2.0086,-2.0096,-2.0133,-2.0148,-2.0153,-2.0162,-2.018,-2.0181,-2.0351,-2.0352,0,0,-1.9909,-1.9901,-1.9963,-1.9977,-1.9956,-1.9971,-1.9978,-2.0092,-2.0109,-2.0148,-2.0156,-2.0164,-2.0181,-2.0182,-2.035,-2.0351,0,0,0,-1.9892,-1.9897,-1.9923,-1.9971,-1.9989,-1.9974,-1.9982,-2.0104,-2.0112,-2.0158,-2.0166,-2.0182,-2.0184,-2.0349,-2.0351,-2.038,0,0,0,-1.9888,-1.9887,-1.992,-1.9916,-1.9987,-2.0047,-1.9991,-2.0104,-2.0117,-2.0165,-2.0182,-2.0185,-2.0349,-2.035,-2.0377,-2.0396,0,0,0,-1.9874,-1.9885,-1.9901,-1.9916,-1.9961,-2.0045,-2.0061,-2.0107,-2.0123,-2.018,-2.0186,-2.0348,-2.035,-2.0375,-2.0392,-2.0438,0,0,0,-1.9857,-1.9927,-1.9901,-1.9983,-1.996,-2.0061,-2.006,-2.0137,-2.0189,-2.0183,-2.0349,-2.0351,-2.0374,-2.0389,-2.0435,-2.0476,-2.0491,0,0,-1.9941,-1.9936,-1.9985,-1.9965,-2.0068,-2.0046,-2.0155,-2.0212,-2.0227,-2.031,-2.0314,-2.0378,-2.0391,-2.0437,-2.0581,-2.0593,0,0,0,-2.0009,-2.0044,-2.0073,-2.0121,-2.0165,-2.0204,-2.0245,-2.0267,-2.0337,-2.0266,-2.0407,-2.0416,-2.0443,-2.0463,-2.0473,-2.0498,-2.0359,-2.0359,-2.0359,-2.0118,-2.013,-2.0212,-2.0237,-2.0284,-2.0325,-2.0365,-2.0402,-2.0402,-2.0435,-2.046,-2.0545,-2.0568,-2.0576,-2.0601,-2.0482,-2.0482,-2.0482,-2.0482,-2.0243,-2.0294,-2.0291,-2.0369,-2.0383,-2.045,-2.0493,-2.0491,-2.0558,-2.0528,-2.0553,-2.0519,-2.0589,-2.0612,-2.0485,-2.0484,-2.0484,-2.0484,-2.0484,-2.0316,-2.0343,-2.0365,-2.0436,-2.049,-2.0514,-2.0577,-2.0588,-2.0599,-2.0624,-2.0652,-2.0652,-2.0653,-2.0636,-2.0636,-2.0637,-2.0637,-2.0637,-2.0637,-2.0383,-2.0407,-2.0457,-2.0509,-2.0541,-2.0585,-2.0627,-2.0661,-2.0701,-2.0704,-2.0705,-2.0703,-2.0593,-2.0565,-2.0642,-2.0641,-2.0641,-2.064,-2.064,-2.0506,-2.048,-2.0557,-2.0589,-2.0651,-2.0704,-2.0716,-2.0783,-2.0813,-2.0844,-2.0837,-2.0753,-2.0751,-2.0743,-2.072,-2.0832,-2.0832,-2.0832,-2.0833,-2.0569,-2.0567,-2.0649,-2.0699,-2.0751,-2.0769,-2.086,-2.0893,-2.0925,-2.0945,-2.093,-2.0901,-2.0892,-2.0895,-2.0883,-2.0863,-2.1009,-2.1009,-2.1009,-2.0646,-2.065,-2.0723,-2.075,-2.0799,-2.0842,-2.0927,-2.0989,-2.1019,-2.1017,-2.0961,-2.0953,-2.0906,-2.089,-2.0887,-2.0869,-2.0831,0,0]},{"header":{"parameterUnit":"m.s-1","parameterCategory":1,"la1":30.2992,"la2":30.254,"lo1":-89.0895,"lo2":-89.0443,"dy":0.0025,"dx":0.0025,"nx":19,"ny":19,"refTime":"2026-04-22T21:00:00:Z","depth":0,"parameterNumber":3,"parameterNumberName":"V-component_of_WINDS"},"data":[0,0,0,3.8244,3.8243,3.819,3.819,3.8142,3.8142,0,0,0,0,0,0,0,0,0,0,0,3.8273,3.8273,3.8244,3.8243,3.819,3.819,3.8142,3.8142,0,0,0,0,0,0,0,0,0,0,0,3.8273,3.8273,3.8274,3.8243,3.819,3.819,3.8142,3.8174,0,0,0,0,0,0,0,0,0,0,3.8222,3.8264,3.8273,3.8274,3.8242,3.8191,3.819,3.8176,3.8173,3.8175,0,3.8184,0,3.8162,3.814,3.814,0,0,0,3.8231,3.8267,3.824,3.8274,3.8242,3.8191,3.8211,3.8174,3.817,3.8171,3.8183,3.818,3.8162,3.814,3.814,3.8198,3.8199,0,0,3.8234,3.8271,3.8243,3.8238,3.825,3.8213,3.8209,3.8171,3.8185,3.8182,3.8179,3.8161,3.814,3.814,3.8198,3.8199,0,0,0,3.825,3.8273,3.8247,3.8241,3.823,3.8211,3.8208,3.8187,3.8175,3.8178,3.816,3.814,3.814,3.8197,3.8198,3.8274,0,0,0,3.8251,3.8283,3.8249,3.8271,3.8231,3.8208,3.8225,3.8178,3.8172,3.8161,3.814,3.8139,3.8196,3.8197,3.827,3.8303,0,0,0,3.8272,3.8285,3.8282,3.8273,3.8252,3.8208,3.8194,3.8176,3.8162,3.814,3.8139,3.8195,3.8197,3.8266,3.8297,3.8329,0,0,0,3.8303,3.8349,3.8284,3.8328,3.8253,3.8256,3.8194,3.8194,3.8184,3.814,3.8196,3.8198,3.8265,3.8293,3.8325,3.8362,3.8381,0,0,3.8381,3.836,3.8383,3.8323,3.8348,3.8261,3.8296,3.8251,3.8215,3.8205,3.8206,3.8271,3.8296,3.8328,3.8476,3.8491,0,0,0,3.842,3.8437,3.8436,3.843,3.8398,3.8373,3.832,3.8303,3.8294,3.8218,3.829,3.8304,3.8321,3.8337,3.835,3.8361,3.8207,3.8207,3.8207,3.8582,3.8535,3.8569,3.8516,3.851,3.8455,3.8446,3.8413,3.8365,3.8383,3.838,3.8476,3.8496,3.8505,3.8518,3.8396,3.8396,3.8397,3.8397,3.8692,3.8708,3.8645,3.8657,3.8605,3.8613,3.8561,3.8528,3.8526,3.8474,3.8487,3.8434,3.8524,3.8533,3.8402,3.8401,3.84,3.84,3.8399,3.8792,3.8791,3.8772,3.8758,3.8752,3.8695,3.8697,3.865,3.8605,3.8617,3.8608,3.8607,3.8599,3.8617,3.8617,3.8617,3.8618,3.8618,3.8618,3.8903,3.8879,3.8888,3.8859,3.8849,3.8829,3.8774,3.8762,3.8735,3.87,3.87,3.865,3.8542,3.8516,3.8623,3.8622,3.8621,3.8621,3.8621,3.9031,3.8995,3.9009,3.8999,3.896,3.8957,3.8897,3.8876,3.8859,3.8861,3.8808,3.8737,3.8711,3.87,3.8677,3.882,3.882,3.882,3.882,3.9115,3.9098,3.9101,3.9088,3.907,3.9017,3.9032,3.899,3.894,3.8925,3.8898,3.8865,3.8856,3.8834,3.8821,3.8799,3.8969,3.8969,3.8969,3.919,3.9169,3.9192,3.9145,3.9112,3.9084,3.9096,3.9081,3.9017,3.8974,3.8913,3.8907,3.8852,3.8837,3.8793,3.8773,3.8732,0,0]}]]